When you browse on this site, cookies collect data to enhance your experience and personalize the content and advertising you see.
Visit our Privacy Policy to learn more. By continuing to use the site, you agree to this use of cookies and data.
  • In Belgium
  • List of Countries
  • For 7 days
  • Water Temperature
  • Satellite Maps
  • Weather Map
  • Weather Widgets
  • user-avatar
    Login

    Hourly Weather Annaba

    Today, 23 July, Tuesday

    Time Temperature Precipitation Wind Pressure Humidity
    00:00 +26°C° 0 mm 1 mps 762 mmHg 70%
    01:00 +26°C° 0 mm 1 mps 762 mmHg 69%
    02:00 +26°C° 0 mm 1 mps 762 mmHg 68%
    03:00 +25°C° 0 mm 1 mps 761 mmHg 67%
    04:00 +25°C° 0 mm 1 mps 761 mmHg 67%
    05:00 +26°C° 0 mm 1 mps 761 mmHg 62%
    06:00 +27°C° 0 mm 1 mps 762 mmHg 58%
    07:00 +28°C° 0 mm 1 mps 762 mmHg 53%
    08:00 +30°C° 0 mm 1 mps 762 mmHg 47%
    09:00 +32°C° 0 mm 1 mps 761 mmHg 40%
    10:00 +35°C° 0 mm 2 mps 761 mmHg 34%
    11:00 +36°C° 0 mm 2 mps 761 mmHg 32%
    12:00 +37°C° 0 mm 3 mps 761 mmHg 30%
    13:00 +38°C° 0 mm 4 mps 760 mmHg 28%
    14:00 +37°C° 0 mm 5 mps 760 mmHg 32%
    15:00 +36°C° 0 mm 5 mps 760 mmHg 35%
    16:00 +35°C° 0 mm 6 mps 759 mmHg 39%
    17:00 +34°C° 0 mm 5 mps 759 mmHg 42%
    18:00 +33°C° 0 mm 4 mps 759 mmHg 45%
    19:00 +32°C° 0 mm 4 mps 759 mmHg 48%
    20:00 +30°C° 0 mm 3 mps 759 mmHg 52%
    21:00 +29°C° 0 mm 3 mps 760 mmHg 56%
    22:00 +27°C° 0 mm 2 mps 760 mmHg 59%
    23:00 +27°C° 0 mm 2 mps 760 mmHg 59%

    Tomorrow, 24 July, Wednesday

    Time Temperature Precipitation Wind Pressure Humidity
    00:00 +27°C° 0 mm 2 mps 760 mmHg 58%
    01:00 +27°C° 0 mm 1 mps 760 mmHg 57%
    02:00 +27°C° 0 mm 1 mps 759 mmHg 57%
    03:00 +26°C° 0 mm 1 mps 759 mmHg 56%
    04:00 +26°C° 0 mm 1 mps 759 mmHg 56%
    05:00 +27°C° 0 mm 1 mps 759 mmHg 52%
    06:00 +28°C° 0 mm 1 mps 759 mmHg 49%
    07:00 +29°C° 0 mm 1 mps 759 mmHg 45%
    08:00 +31°C° 0 mm 1 mps 759 mmHg 40%
    09:00 +34°C° 0 mm 2 mps 759 mmHg 35%
    10:00 +36°C° 0 mm 3 mps 759 mmHg 30%
    11:00 +36°C° 0 mm 3 mps 759 mmHg 31%
    12:00 +37°C° 0 mm 4 mps 759 mmHg 32%
    13:00 +37°C° 0 mm 5 mps 759 mmHg 33%
    14:00 +37°C° 0 mm 5 mps 758 mmHg 36%
    15:00 +36°C° 0 mm 5 mps 758 mmHg 38%
    16:00 +35°C° 0 mm 6 mps 757 mmHg 40%
    17:00 +34°C° 0 mm 5 mps 758 mmHg 43%
    18:00 +33°C° 0 mm 4 mps 758 mmHg 46%
    19:00 +32°C° 0 mm 4 mps 758 mmHg 50%
    20:00 +30°C° 0 mm 3 mps 758 mmHg 55%
    21:00 +29°C° 0 mm 2 mps 759 mmHg 60%
    22:00 +27°C° 0 mm 2 mps 759 mmHg 65%
    23:00 +27°C° 0 mm 1 mps 759 mmHg 64%

    Day after tomorrow, 25 July, Thursday

    Time Temperature Precipitation Wind Pressure Humidity
    00:00 +27°C° 0 mm 1 mps 759 mmHg 62%
    01:00 +27°C° 0 mm 1 mps 758 mmHg 61%
    02:00 +27°C° 0 mm 1 mps 758 mmHg 60%
    03:00 +27°C° 0 mm 1 mps 758 mmHg 59%
    04:00 +27°C° 0 mm 1 mps 758 mmHg 58%
    05:00 +27°C° 0 mm 1 mps 758 mmHg 54%
    06:00 +28°C° 0 mm 1 mps 758 mmHg 50%
    07:00 +29°C° 0 mm 2 mps 758 mmHg 45%
    08:00 +32°C° 0 mm 2 mps 758 mmHg 41%
    09:00 +35°C° 0 mm 2 mps 758 mmHg 37%
    10:00 +37°C° 0 mm 3 mps 758 mmHg 32%
    11:00 +37°C° 0 mm 4 mps 758 mmHg 33%
    12:00 +39°C° 0 mm 5 mps 758 mmHg 34%
    13:00 +39°C° 0 mm 6 mps 757 mmHg 35%
    14:00 +38°C° 0 mm 6 mps 757 mmHg 38%
    15:00 +36°C° 0 mm 6 mps 757 mmHg 41%
    16:00 +36°C° 0 mm 6 mps 756 mmHg 44%
    17:00 +34°C° 0 mm 5 mps 756 mmHg 48%
    18:00 +33°C° 0 mm 4 mps 757 mmHg 52%
    19:00 +31°C° 0 mm 3 mps 757 mmHg 56%
    20:00 +30°C° 0 mm 2 mps 757 mmHg 60%
    21:00 +29°C° 0 mm 1 mps 757 mmHg 65%
    22:00 +28°C° 0 mm 1 mps 758 mmHg 69%
    23:00 +28°C° 0 mm 1 mps 758 mmHg 67%

    26 July, Friday

    Time Temperature Precipitation Wind Pressure Humidity
    00:00 +27°C° 0 mm 1 mps 757 mmHg 66%
    01:00 +27°C° 0 mm 2 mps 757 mmHg 65%
    02:00 +27°C° 0 mm 2 mps 757 mmHg 67%
    03:00 +26°C° 0 mm 2 mps 757 mmHg 69%
    04:00 +26°C° 0 mm 2 mps 756 mmHg 71%
    05:00 +27°C° 0 mm 2 mps 756 mmHg 68%
    06:00 +28°C° 0 mm 2 mps 756 mmHg 65%
    07:00 +28°C° 0 mm 2 mps 756 mmHg 63%
    08:00 +31°C° 0 mm 2 mps 756 mmHg 55%
    09:00 +34°C° 0 mm 2 mps 756 mmHg 47%
    10:00 +37°C° 0 mm 2 mps 756 mmHg 39%
    11:00 +37°C° 0 mm 3 mps 756 mmHg 38%
    12:00 +38°C° 0 mm 3 mps 755 mmHg 37%
    13:00 +38°C° 0 mm 4 mps 755 mmHg 36%
    14:00 +38°C° 0 mm 4 mps 755 mmHg 36%
    15:00 +37°C° 0 mm 4 mps 755 mmHg 37%
    16:00 +37°C° 0 mm 4 mps 754 mmHg 37%
    17:00 +35°C° 0 mm 3 mps 755 mmHg 43%
    18:00 +34°C° 0 mm 2 mps 755 mmHg 48%
    19:00 +31°C° 0 mm 1 mps 755 mmHg 54%
    20:00 +30°C° 0 mm 1 mps 755 mmHg 57%
    21:00 +29°C° 0 mm 1 mps 755 mmHg 61%
    22:00 +28°C° 0 mm 1 mps 755 mmHg 64%
    23:00 +28°C° 0 mm 1 mps 755 mmHg 60%

    27 July, Saturday

    Time Temperature Precipitation Wind Pressure Humidity
    00:00 +28°C° 0 mm 1 mps 755 mmHg 57%
    01:00 +28°C° 0 mm 2 mps 754 mmHg 53%
    02:00 +28°C° 0 mm 1 mps 754 mmHg 50%
    03:00 +28°C° 0 mm 1 mps 753 mmHg 48%
    04:00 +26°C° 0 mm 0 mps 753 mmHg 46%
    05:00 +29°C° 0 mm 1 mps 753 mmHg 46%
    06:00 +29°C° 0 mm 1 mps 753 mmHg 47%
    07:00 +30°C° 0 mm 1 mps 753 mmHg 48%
    08:00 +31°C° 0 mm 2 mps 753 mmHg 44%
    09:00 +34°C° 0 mm 2 mps 753 mmHg 40%
    10:00 +36°C° 0 mm 2 mps 753 mmHg 36%
    11:00 +36°C° 0 mm 3 mps 753 mmHg 38%
    12:00 +36°C° 0 mm 5 mps 753 mmHg 40%
    13:00 +36°C° 0 mm 6 mps 753 mmHg 42%
    14:00 +35°C° 0 mm 6 mps 753 mmHg 43%
    15:00 +35°C° 0 mm 6 mps 752 mmHg 45%
    16:00 +34°C° 0 mm 6 mps 752 mmHg 47%
    17:00 +33°C° 0 mm 6 mps 753 mmHg 46%
    18:00 +33°C° 0 mm 5 mps 753 mmHg 45%
    19:00 +32°C° 0 mm 5 mps 753 mmHg 44%
    20:00 +29°C° 0 mm 5 mps 754 mmHg 53%
    21:00 +28°C° 0 mm 4 mps 754 mmHg 63%
    22:00 +26°C° 0 mm 4 mps 755 mmHg 72%
    23:00 +26°C° 0 mm 4 mps 755 mmHg 73%

    28 July, Sunday

    Time Temperature Precipitation Wind Pressure Humidity
    00:00 +26°C° 0 mm 4 mps 755 mmHg 74%
    01:00 +26°C° 0 mm 4 mps 755 mmHg 76%
    02:00 +26°C° 0 mm 4 mps 755 mmHg 77%
    03:00 +26°C° 0 mm 4 mps 754 mmHg 78%
    04:00 +26°C° 0 mm 4 mps 754 mmHg 78%
    05:00 +26°C° 0.2 mm 4 mps 755 mmHg 77%
    06:00 +26°C° 0.2 mm 4 mps 755 mmHg 76%
    07:00 +26°C° 0.2 mm 4 mps 755 mmHg 76%
    08:00 +27°C° 0.1 mm 4 mps 755 mmHg 72%
    09:00 +28°C° 0.1 mm 4 mps 756 mmHg 69%
    10:00 +29°C° 0.1 mm 3 mps 756 mmHg 66%
    11:00 +29°C° 0 mm 4 mps 756 mmHg 62%
    12:00 +30°C° 0 mm 4 mps 756 mmHg 58%
    13:00 +32°C° 0 mm 5 mps 756 mmHg 54%
    14:00 +32°C° 0 mm 5 mps 756 mmHg 55%
    15:00 +32°C° 0 mm 5 mps 756 mmHg 56%
    16:00 +30°C° 0 mm 5 mps 756 mmHg 57%
    17:00 +29°C° 0 mm 4 mps 756 mmHg 61%
    18:00 +28°C° 0 mm 4 mps 756 mmHg 65%
    19:00 +27°C° 0 mm 3 mps 756 mmHg 68%
    20:00 +26°C° 0 mm 2 mps 757 mmHg 72%
    21:00 +25°C° 0 mm 2 mps 757 mmHg 76%
    22:00 +24°C° 0 mm 1 mps 758 mmHg 80%
    23:00 +24°C° 0 mm 1 mps 758 mmHg 81%
    Show more